Temp
29 27 25 27 28 30 31 30 30 32 32 31 29 30 30 30 29 29 28 28 27 27 27 29 29 29 28 27 27 27 26 25 24 23 22 22 21 21 21 21 20 19 19 18
28 26 29 31 31 31 31 30 29 31 33 31 29 30 31 31 29 30 29 28 28 28 26 27 28 28 28 27 27 26 25 23 22 22 20 19 19 20 19 19 19 18 17 16
27 29 32 32 31 31 31 31 31 31 31 34 32 31 32 31 31 30 30 30 28 27 28 26 27 27 28 27 25 23 21 20 20 19 19 19 20 19 17 16 16 15 14 14
29 31 32 32 32 32 29 32 32 31 30 28 30 25 29 29 29 30 30 28 28 27 28 26 27 24 22 20 20 19 19 19 18 17 17 16 15 14 14 14 13 13 13 12
29 30 31 31 32 32 30 33 31 30 27 26 27 25 27 28 29 29 28 29 28 27 27 27 25 21 19 20 19 19 18 18 17 16 15 15 14 13 13 13 12 11 11 10
29 31 32 32 33 32 32 32 29 27 26 23 26 26 27 27 30 28 29 29 30 29 25 23 21 20 19 19 19 18 17 17 16 15 15 14 13 12 12 10 9 8 8 8
29 30 31 34 32 30 31 25 23 23 23 23 28 27 28 30 30 30 28 28 27 25 24 23 22 21 20 19 19 18 17 16 15 14 13 13 12 11 9 8 8 7 8 8
26 26 30 32 30 28 29 25 20 24 23 24 29 27 28 29 29 29 29 26 25 25 24 23 21 20 19 18 17 16 15 14 14 13 12 11 10 9 8 7 7 7 7 7
27 28 32 32 32 30 29 27 26 25 25 24 26 28 29 27 28 30 31 26 24 23 22 21 20 19 18 16 16 15 14 13 12 11 10 9 8 7 7 7 7 7 6 6
27 26 30 32 31 31 29 29 26 24 24 24 26 26 25 25 25 27 30 27 24 22 21 20 19 18 16 15 14 14 13 11 10 9 8 7 7 7 7 6 6 6 6 6
28 26 28 29 30 28 28 27 27 24 22 21 21 23 23 22 22 23 25 27 23 21 21 20 19 17 15 14 13 12 11 9 8 7 7 6 7 6 6 6 6 6 6 5
25 25 25 27 29 31 27 23 22 19 21 21 21 21 21 22 24 25 24 25 23 23 21 19 17 15 13 13 11 10 8 7 7 6 6 7 6 7 7 7 6 6 6 6
25 23 23 24 26 27 25 26 24 23 20 21 18 19 21 21 21 23 25 25 23 21 19 17 15 14 13 11 10 8 7 6 6 6 6 7 7 7 7 7 7 7 7 6
24 24 23 20 24 25 26 24 24 21 20 20 20 20 21 18 18 20 20 22 21 19 17 15 13 12 11 10 8 8 7 6 6 7 7 8 8 8 8 8 8 8 8 7
23 23 25 25 26 27 26 25 24 21 22 21 24 23 21 19 17 19 18 20 20 19 17 15 13 11 10 9 7 7 6 6 7 8 7 8 8 8 8 9 8 9 8 8
23 22 25 23 25 26 26 27 26 24 24 21 22 21 21 18 18 18 19 21 20 18 16 15 13 11 9 8 7 6 7 7 8 8 8 9 9 9 9 9 9 9 8 8
23 21 21 21 24 24 22 25 25 25 24 24 21 21 22 19 20 17 18 19 19 17 15 13 11 9 8 8 7 7 8 8 9 9 9 10 10 9 9 9 9 9 9 9
23 22 21 20 22 20 23 25 26 25 26 23 23 23 22 19 19 18 19 17 16 15 13 11 9 9 8 8 9 9 9 9 9 9 9 9 10 9 9 9 9 9 8 9
22 21 20 19 20 22 24 24 23 22 23 22 23 23 19 18 17 16 17 15 13 12 11 10 10 9 9 9 9 10 10 9 9 9 9 9 9 9 9 9 8 8 8 9
22 20 19 20 20 20 23 23 24 25 20 18 19 18 18 19 17 15 15 14 12 11 10 10 10 9 9 10 10 10 9 9 9 9 9 10 10 10 9 9 8 8 8 8
21 20 20 19 20 21 23 24 24 21 18 19 19 18 18 15 14 13 14 13 12 11 11 11 10 10 10 11 10 10 9 9 9 10 10 10 10 10 9 9 8 8 7 7
20 19 19 19 19 18 22 22 21 18 17 17 17 15 14 14 13 12 13 13 12 11 11 11 10 10 11 11 10 10 9 10 10 10 10 11 11 10 10 10 9 8 7 7
19 19 17 19 18 20 21 19 20 17 16 16 15 15 16 15 14 12 13 13 12 12 12 11 11 11 11 11 10 10 9 10 10 10 10 11 11 11 10 10 8 8 7 6
21 19 18 19 21 21 21 21 19 18 16 15 15 14 14 13 13 12 14 14 13 13 12 12 12 11 11 11 10 10 10 10 10 10 10 11 11 11 11 10 8 8 7 6
15 19 16 16 20 21 19 19 18 17 17 16 15 14 14 13 13 13 14 14 14 13 13 13 12 12 11 11 10 10 10 10 10 10 10 11 11 11 11 11 9 8 7 6
13 14 15 15 15 16 18 19 20 17 16 16 15 15 15 16 15 15 15 14 14 13 13 13 12 12 12 11 10 10 10 10 10 10 10 10 10 12 11 11 10 8 7 7
Height
772 794 807 793 781 776 777 783 787 768 751 761 773 775 769 759 763 768 770 769 771 772 770 776 781 785 791 797 801 804 808 813 816 818 818 819 818 818 817 815 815 813 810 808
784 799 774 765 765 770 773 781 784 763 745 758 771 776 762 757 759 757 760 764 764 766 768 771 775 780 784 788 794 801 806 808 811 814 816 817 817 817 817 815 813 811 808 806
792 772 756 762 766 772 772 777 777 778 758 750 764 779 766 755 751 750 749 749 754 758 762 767 771 775 781 788 797 802 805 808 809 812 815 815 815 815 814 813 812 810 807 804
775 756 758 761 765 765 788 760 765 769 779 806 767 824 779 765 760 751 747 749 749 752 754 759 765 774 784 793 798 803 808 810 814 813 816 817 819 818 817 815 812 808 805 802
777 765 763 766 762 758 777 756 766 772 789 792 791 812 795 769 770 758 744 740 742 744 747 753 767 779 787 793 800 805 810 813 816 816 818 818 818 818 816 813 809 806 804 801
763 744 751 753 747 752 751 763 775 781 796 831 800 807 798 785 767 754 736 735 738 741 752 759 773 779 791 797 803 808 811 815 817 818 819 819 818 815 812 810 807 805 802 799
770 762 746 739 758 756 759 793 834 839 835 839 789 804 790 761 752 750 748 749 752 753 761 770 779 791 795 801 807 811 813 818 819 819 819 818 817 815 813 810 807 804 800 797
796 799 755 739 757 774 771 788 840 841 843 826 783 807 790 757 750 747 750 752 756 762 770 778 786 793 799 805 809 811 814 817 818 818 818 817 816 814 812 810 808 804 800 795
786 779 739 732 736 752 771 790 777 808 803 822 805 786 768 763 760 754 754 759 767 771 778 787 795 800 804 807 810 813 815 817 819 819 818 817 816 814 813 810 807 803 799 793
764 789 749 737 734 744 761 759 800 804 828 833 809 805 802 786 780 768 760 765 771 779 784 790 797 803 809 812 814 815 817 818 820 820 819 819 817 815 812 809 806 802 796 790
750 769 768 753 757 767 769 780 777 793 811 839 843 820 793 793 788 782 774 764 776 779 783 791 798 804 809 812 815 816 819 820 821 821 821 819 817 815 812 809 805 800 794 788
757 765 787 772 748 742 762 789 796 826 827 822 822 827 802 797 785 776 780 769 782 779 785 794 800 806 810 816 817 820 823 823 824 823 822 820 817 815 811 807 804 799 794 787
757 780 795 788 772 759 775 780 789 797 814 824 851 835 795 795 798 791 773 771 778 785 793 798 802 807 812 816 820 822 824 825 825 824 823 819 817 815 811 808 804 799 793 787
752 770 787 815 790 775 780 780 784 806 829 825 825 812 799 806 810 803 802 773 779 789 794 803 807 813 816 822 824 826 826 826 825 824 822 819 816 813 810 807 804 798 793 788
761 784 775 775 769 765 770 778 782 799 798 812 791 790 794 797 803 801 804 803 791 791 800 806 811 816 821 825 826 827 826 826 824 823 821 819 816 812 809 806 802 798 794 788
760 785 773 783 770 769 774 767 768 780 781 792 787 793 783 793 791 790 798 806 796 798 802 809 813 820 826 828 828 826 825 825 824 822 820 819 816 812 809 806 801 797 794 788
768 780 788 797 775 778 792 775 769 767 771 774 790 781 771 781 779 785 780 805 792 797 804 811 818 825 829 830 828 826 825 825 823 822 820 818 815 812 809 805 801 796 792 786
771 778 786 800 788 815 775 754 755 762 757 764 767 769 769 777 775 780 787 794 801 802 807 816 822 828 831 831 827 825 826 825 824 822 820 818 815 812 808 804 800 796 790 785
764 778 794 804 805 785 770 762 767 774 772 765 765 763 773 779 780 789 791 796 805 807 814 818 824 830 831 829 827 826 827 827 824 822 820 817 814 811 808 805 800 795 790 785
760 768 789 791 801 808 773 760 755 756 792 779 774 778 774 778 797 805 799 800 809 813 815 822 827 831 830 828 828 829 828 826 823 822 820 817 814 811 809 805 800 796 791 787
775 777 786 793 794 781 762 756 753 786 798 777 776 778 776 788 794 813 809 808 811 810 820 828 828 828 829 828 828 829 828 827 824 822 819 815 812 810 809 805 802 798 792 788
776 790 790 787 792 801 759 760 776 780 778 779 774 782 787 790 796 802 814 811 814 819 824 828 828 828 827 828 829 829 829 827 824 821 818 815 813 810 808 806 803 800 795 790
776 769 782 775 783 764 758 767 766 771 778 782 782 783 783 790 799 811 821 819 818 822 823 826 828 829 828 828 829 830 829 827 824 821 818 815 813 811 808 806 803 801 797 794
751 753 773 769 760 761 761 762 766 771 777 783 786 788 790 795 805 803 817 820 820 820 823 827 827 829 830 828 829 829 829 827 824 822 819 815 813 811 808 806 803 801 799 796
777 762 778 780 763 762 766 765 770 774 778 784 789 793 794 797 804 805 812 815 818 822 825 826 827 829 831 829 829 829 829 827 825 822 820 816 813 811 808 805 803 801 800 798
780 779 784 780 774 772 771 768 768 775 779 785 787 794 796 796 797 804 810 815 819 824 825 827 829 830 831 829 829 829 829 828 825 823 820 817 814 812 809 806 803 800 800 798
Wind_Speed
7 3 7 12 11 12 11 7 10 9 10 12 10 8 10 9 12 10 10 11 11 13 16 33 37 35 32 29 26 21 14 7 6 2 3 7 14 14 14 14 12 18 20 25
5 9 13 13 13 11 10 10 9 9 7 8 10 9 9 6 11 15 15 12 13 12 10 22 31 36 36 33 28 20 14 13 10 5 5 6 10 9 11 14 20 23 28 32
9 13 12 16 11 9 9 3 6 6 9 2 6 2 4 8 5 11 15 15 10 15 17 13 22 32 35 29 22 21 19 14 11 8 4 7 10 14 19 24 26 29 29 24
9 14 15 7 3 6 6 8 6 10 7 2 3 5 6 7 11 8 14 12 11 11 14 12 21 18 27 30 30 28 21 16 14 13 14 15 14 16 19 24 25 25 19 17
10 10 8 5 2 5 8 1 5 6 6 6 9 3 6 8 6 9 12 15 11 11 13 15 16 31 32 33 28 22 20 18 16 16 15 16 16 16 22 20 23 15 24 30
8 10 4 4 6 8 8 3 8 6 4 4 6 4 8 7 5 7 2 11 10 5 19 20 31 34 30 31 28 25 23 20 17 16 16 16 17 19 21 20 23 26 27 24
8 14 8 4 2 8 4 7 3 4 3 5 4 4 13 2 5 6 11 10 16 21 22 20 20 25 27 30 28 25 24 22 18 17 18 19 19 18 19 24 27 28 24 22
8 7 12 8 9 9 5 8 6 5 2 5 5 3 5 6 8 8 8 8 18 20 15 17 22 27 28 29 28 26 24 23 20 20 20 19 20 22 25 26 23 22 24 23
4 8 7 10 7 10 5 2 10 6 4 3 4 7 2 7 7 7 5 12 18 22 21 20 24 24 26 29 29 26 25 23 22 21 21 21 22 23 23 21 22 21 24 26
9 6 8 11 9 6 7 4 2 1 2 5 2 5 2 8 10 9 3 10 18 20 20 18 21 26 26 28 27 25 23 22 21 21 20 20 20 20 20 21 23 25 28 30
11 6 6 6 2 7 1 3 3 4 5 5 2 4 3 3 5 8 19 6 18 19 18 17 21 26 27 29 27 25 22 21 21 20 19 18 19 19 20 21 23 26 26 26
0 3 6 9 8 3 8 3 5 5 6 1 2 3 7 10 7 6 5 19 11 18 17 16 24 25 25 24 26 24 20 20 19 17 17 16 17 20 22 25 24 22 25 26
3 4 2 8 7 7 6 3 5 4 2 4 2 5 9 13 14 19 7 12 14 19 17 16 20 21 22 23 24 22 20 18 16 15 16 16 18 19 20 20 23 23 26 30
5 2 3 6 6 3 4 6 8 7 3 4 5 6 5 4 9 7 16 15 18 16 17 15 14 19 21 21 21 18 17 15 14 15 13 15 18 19 19 19 18 22 24 28
5 2 1 5 8 10 5 5 8 7 10 9 15 17 4 5 6 3 3 10 14 17 15 14 13 16 20 20 18 15 14 11 11 12 14 17 17 20 20 16 15 19 20 25
2 2 1 5 8 9 13 12 6 9 7 6 8 6 8 10 5 5 6 13 15 14 15 14 14 18 16 16 14 13 12 11 12 15 16 14 16 20 18 18 18 22 21 19
3 3 2 3 6 8 7 7 8 3 5 9 7 9 5 7 8 14 15 13 15 16 15 14 13 16 16 14 11 9 8 9 12 14 16 14 17 18 20 20 23 23 25 25
2 2 1 2 4 5 7 8 10 8 3 7 5 3 3 9 5 16 12 15 13 16 16 13 17 18 14 9 7 6 4 7 12 18 16 17 15 16 20 22 20 24 26 27
6 3 2 3 4 9 12 4 4 5 3 4 4 2 13 14 16 11 13 14 14 15 18 21 21 16 9 7 5 6 7 11 14 16 16 18 13 17 18 20 23 24 26 27
7 6 5 2 3 3 4 5 5 1 3 7 6 6 10 6 3 2 14 17 16 22 23 22 20 11 7 3 8 12 13 12 15 15 16 18 15 14 16 17 25 25 24 25
3 3 9 5 4 4 3 4 3 3 3 4 2 3 6 6 10 8 9 15 20 23 24 19 17 10 4 11 12 12 11 12 16 19 20 17 14 13 8 16 21 23 23 22
5 0 2 2 4 7 5 5 2 4 5 6 4 8 12 15 18 17 11 12 19 19 21 19 15 9 12 11 11 11 11 13 17 19 20 19 14 8 8 12 15 19 22 25
4 4 5 6 5 4 5 8 5 9 7 6 8 12 17 17 17 13 2 9 17 18 21 20 15 12 10 11 10 10 11 14 17 18 19 20 11 12 6 8 10 17 17 20
1 6 3 4 4 7 6 6 8 13 13 10 10 12 16 17 13 17 6 8 12 17 20 19 16 12 9 11 10 10 11 14 16 16 17 19 18 11 8 6 5 10 14 15
4 4 2 2 4 6 8 7 9 11 15 14 13 13 14 15 13 14 10 12 14 16 17 17 15 10 10 11 10 10 10 12 15 15 18 22 18 17 10 10 4 3 7 11
2 3 4 2 1 1 4 5 9 11 10 11 14 12 9 14 15 16 13 18 18 17 18 15 10 10 10 12 10 8 9 10 14 15 16 21 19 16 13 16 12 4 1 5
Wind_Direction
243 196 229 234 242 243 268 275 273 284 231 171 193 191 213 236 163 173 181 187 186 180 180 168 169 170 171 170 174 187 189 210 257 235 6 334 340 342 345 339 358 343 341 336
279 232 231 235 246 245 260 266 286 303 342 134 188 210 223 203 188 184 192 193 192 187 173 176 172 173 175 178 182 164 166 155 143 119 49 48 14 359 356 335 336 330 329 331
217 250 235 234 254 285 257 263 304 292 312 21 126 245 251 280 239 201 196 195 185 180 188 175 174 171 174 168 152 133 122 115 105 81 21 350 339 341 342 339 334 332 335 344
238 258 262 266 273 318 326 295 346 311 300 216 113 260 264 248 256 240 200 189 192 185 187 174 176 150 106 107 114 104 95 81 59 44 29 29 14 356 341 335 334 338 345 342
247 262 273 269 182 288 249 343 354 2 9 50 328 72 277 329 294 270 216 188 188 182 177 169 130 109 108 111 104 94 84 73 56 44 32 19 7 351 340 345 342 349 334 330
262 281 279 250 195 227 252 80 21 2 43 7 293 345 302 281 288 335 224 154 178 171 95 97 108 107 109 105 99 94 89 74 60 43 27 19 6 355 355 1 351 347 340 339
292 277 271 228 327 320 254 79 12 346 345 233 223 280 242 266 86 54 77 79 94 111 112 111 110 114 107 104 93 84 77 63 52 41 33 23 15 10 7 357 349 343 336 332
213 281 231 212 175 203 244 138 139 232 241 256 211 251 314 106 64 49 54 92 85 95 102 100 98 98 97 95 90 80 67 57 42 30 24 17 11 3 355 352 345 337 330 324
284 272 319 312 157 156 263 192 200 190 278 314 246 299 12 22 42 73 68 94 95 99 100 99 95 95 91 83 77 71 64 53 40 29 18 9 1 2 357 349 342 333 335 333
233 260 284 314 121 175 171 211 25 356 180 247 286 325 255 1 351 1 88 111 109 105 103 100 98 95 89 82 74 64 57 49 33 19 17 11 8 360 356 353 348 345 343 340
200 161 284 357 259 169 38 298 273 144 139 190 190 266 175 19 340 329 335 161 127 122 115 110 101 89 84 75 65 59 48 36 25 22 16 14 5 3 2 360 359 359 349 342
192 175 202 233 268 103 80 120 71 87 336 355 195 268 30 358 358 146 255 101 98 111 111 105 97 88 78 73 66 59 47 36 27 24 19 13 11 14 14 14 6 8 2 358
331 335 63 338 340 19 65 100 86 113 91 77 109 256 38 16 349 333 88 125 119 102 97 91 86 82 77 67 63 54 42 37 29 25 20 10 10 2 12 10 12 10 10 10
86 102 108 191 244 147 208 179 138 110 88 279 229 261 317 89 316 315 326 96 95 95 96 92 84 81 79 73 64 52 45 37 36 28 14 355 355 352 348 347 356 11 11 13
104 154 344 303 306 314 298 212 172 163 200 204 253 245 124 76 17 46 14 333 97 105 98 94 90 83 76 71 62 56 43 45 34 10 349 356 356 353 346 353 1 1 3 11
109 182 295 303 305 309 305 308 281 191 209 227 248 264 157 168 108 12 270 204 132 108 101 94 87 83 80 77 70 58 45 26 15 4 353 350 354 357 6 1 360 352 342 342
110 104 48 269 315 321 292 274 281 185 178 211 215 236 205 187 170 183 204 230 128 111 102 93 89 89 90 88 79 70 38 24 5 353 356 350 2 9 4 1 357 352 352 343
51 75 4 267 334 273 245 263 284 277 237 97 81 71 48 88 68 86 89 106 110 105 98 97 100 103 104 103 93 67 31 15 11 8 8 359 4 2 0 357 354 355 352 351
182 178 230 185 229 289 310 12 41 42 11 83 114 354 127 107 79 66 97 101 106 100 103 107 112 117 126 147 119 76 38 43 17 5 360 360 355 4 2 5 3 3 0 4
204 174 162 217 233 249 190 87 65 33 299 13 27 5 132 108 60 176 121 110 108 110 111 117 125 131 159 151 92 67 47 26 15 8 354 353 337 355 5 12 13 9 11 10
215 215 208 213 218 270 64 99 176 162 247 348 50 149 151 112 110 47 89 106 110 109 122 134 131 147 98 83 82 68 45 22 6 352 346 348 356 338 18 15 19 15 14 17
164 157 292 251 236 260 30 77 103 179 45 50 352 111 107 117 122 138 143 126 121 127 136 133 138 130 96 76 72 66 41 16 7 0 1 3 15 35 25 15 21 29 24 27
215 154 182 167 199 199 106 126 132 101 104 75 79 111 119 115 110 104 93 141 139 147 142 139 144 131 113 91 75 66 27 12 8 5 2 6 2 15 2 17 18 33 38 31
321 67 351 91 92 84 112 100 104 115 113 108 95 108 112 114 120 118 175 127 127 137 134 146 138 128 120 97 82 61 26 19 13 8 4 2 356 2 359 355 358 36 42 38
326 345 35 320 59 116 50 102 105 100 120 125 124 128 131 132 134 130 154 136 138 142 148 141 132 135 114 92 85 56 27 24 17 8 3 4 359 11 6 351 343 2 48 43
152 47 272 283 254 11 122 86 131 135 136 143 143 145 138 148 145 158 133 137 144 129 121 120 122 102 104 88 76 46 28 29 23 10 2 4 2 10 11 7 347 294 105 42